Location: *
(29.1167°S, 130.0000°E)
Time: 09:09:03
(UTC+00:00)

FengYun 1-2 T - Pass Details

Date: 21 July 2019
Orbit: 847 x 881 km, 98.7° (Epoch: 20 August)

Event Time Altitude Azimuth Distance (km) Brightness Sun altitude
Exits shadow 10:19:49 24° 154° (SSE) 1,728 5.5 -21.0°
Maximum altitude 10:23:13 64° 79° (ENE) 958 4.2 -21.8°
Drops below altitude 10° 10:28:43 10° 357° (N) 2,491 6.8 -22.9°
Sets 10:31:05 0° 354° (N) 3,415 7.6 -23.5°
